Regional Weather Roundup
Issued by NWS Cleveland, OH

Home | Current Version | Previous Version | Graphics & Text | Print | Product List | Glossary On
Versions: 1 2 3 4 5 6 7 8 9 10 11 12 13 14 15 16 17 18 19 20 21 22 23 24 25 26 27 28 29 30 31 32 33 34 35 36 37 38 39 40 41 42 43 44 45 46 47 48 49 50
000
ASUS41 KCLE 270602
RWRCLE
OHIO REGIONAL WEATHER ROUNDUP
NATIONAL WEATHER SERVICE CLEVELAND, OH
200 AM EDT SUN MAY 27 2018

NOTE: "FAIR" INDICATES FEW OR NO CLOUDS BELOW 12,000 FEET WITH NO
SIGNIFICANT WEATHER AND/OR OBSTRUCTIONS TO VISIBILITY.

OHZ001>008-015>018-024>027-034-035-043-044-270700-
   NORTHWEST OHIO

CITY           SKY/WX    TMP DP  RH WIND       PRES   REMARKS
DEFIANCE       FAIR      69  67  93 S5        29.84F
FINDLAY        FAIR      69  67  93 S6        29.84F
TOLEDO EXPRESS FAIR      67  67 100 S3        29.83F FOG
TOLEDO EXEC    FAIR      68  66  93 S5        29.84F
LIMA           FAIR      68  68 100 S3        29.86F FOG
$$

OHZ009>014-019>023-028>033-038-089-270700-
   NORTHEAST OHIO

CITY           SKY/WX    TMP DP  RH WIND       PRES   REMARKS
CLE-HOPKINS    FAIR      68  66  93 S6        29.87F
CLE-LAKEFRONT  FAIR      70  65  84 CALM      29.84S
CUY CO. ARPT   NOT AVBL
LORAIN-ELYRIA  FAIR      66  60  81 S3        29.85F
ASHTABULA      MOCLDY    66  66 100 CALM      29.88S
AKRON-CANTON   FAIR      66  63  90 S7        29.88F
WOOSTER        MOCLDY    65  65 100 S5        29.88F
MANSFIELD      CLOUDY    68  67  96 S6        29.88F
YOUNGSTOWN     MOCLDY    67  66  97 S5        29.87F
$$

OHZ042-051>053-060>062-070>072-077>081-270700-
  SOUTHWEST OHIO

CITY           SKY/WX    TMP DP  RH WIND       PRES   REMARKS
CINC-COVINGTON TSTM      70  67  90 S8        29.88F
CINC-LUNKEN    LGT RAIN  69  68  96 S7        29.87F FOG
HAMILTON       MOCLDY    69  69 100 CALM      29.87F
DAYTON         MOCLDY    69  69 100 SW8       29.88S
WRIGHT-PAT AFB FAIR      69  66  90 S6        29.87S
DAYTON GENERAL FAIR      69  65  86 S5        29.87F
WILMINGTON     LGT RAIN  69  69 100 SW7       29.88S
$$

OHZ036-037-039>041-045>050-054>059-063>069-073>076-082>088-270700-
  CENTRAL AND SOUTHEAST OHIO

CITY           SKY/WX    TMP DP  RH WIND       PRES   REMARKS
COLUMBUS       MOCLDY    70  67  90 S3        29.87S
OSU AIRPORT    FAIR      69  68  96 S6        29.87S
BOLTON FIELD   MOCLDY    67  67  99 S3        29.88F
RICKENBACK AFB FAIR      67  67 100 MISG      29.87S
NEWARK         MOCLDY    69  67  93 SE3       29.87F
MARION         FAIR      66  65  96 S6        29.88S
LANCASTER      LGT RAIN  68  67  96 S8        29.88F
ZANESVILLE     LGT RAIN  68  66  93 CALM      29.89S
NEW PHILLY     NOT AVBL
$$




USA.gov is the U.S. government's official web portal to all federal, state and local government web resources and services.